Location: Marcé
(47.5801°N, 0.3280°W)
Time: 09:58:09
(UTC+01:00)

Tiros 1 despin weight - Pass Details

Date: 17 December 2021
Orbit: 592 x 641 km, 48.2° (Epoch: 25 January)

Event Time Altitude Azimuth Distance (km) Brightness Sun altitude
Rises 11:23:52 0° 266° (W) 2,874 ? 16.0°
Reaches altitude 10° 11:26:11 10° 267° (W) 1,962 ? 16.1°
Maximum altitude 11:30:42 83° 356° (N) 613 ? 16.4°
Drops below altitude 10° 11:35:09 10° 85° (E) 1,936 ? 16.7°
Sets 11:37:26 0° 86° (E) 2,833 ? 16.8°
